EDW438 LSZH-LDSP

Flight info

Callsign EDW438
Flight time N/A
Altitude 39000
Route DEGES Z2 XEBIX L607 ELMEM N606 GIRIS DCT NIVAS DCT BADOP DCT BABAG DCT PEVAL DCT MINTU DCT SAL
Aircraft A20N/M-SDE2E3FGHIRWXY/LB1

Departure

Time 2026-02-17 08:43
Airport Zürich Airport (LSZH)

Arrival

Time N/A
Airport Split Saint Jerome Airport (LDSP)
Time Latitude Longitude Altitude Speed Heading
2026-02-17 08:20 47.46048 8.55586 1400 ft 0 kts
2026-02-17 08:31 47.46046 8.55586 1400 ft 1 kts
2026-02-17 08:31 47.46029 8.55582 1408 ft 3 kts 13°
2026-02-17 08:31 47.46010 8.55574 1406 ft 3 kts 25°
2026-02-17 08:32 47.45992 8.55559 1407 ft 3 kts 39°
2026-02-17 08:32 47.45978 8.55539 1409 ft 3 kts 55°
2026-02-17 08:32 47.45969 8.55514 1408 ft 3 kts 75°
2026-02-17 08:32 47.45966 8.55488 1408 ft 2 kts 95°
2026-02-17 08:33 47.45966 8.55484 1407 ft 1 kts 96°
2026-02-17 08:37 47.45966 8.55491 1408 ft 3 kts 96°
2026-02-17 08:37 47.45955 8.55536 1399 ft 7 kts 129°
2026-02-17 08:37 47.45899 8.55556 1401 ft 10 kts 176°
2026-02-17 08:37 47.45865 8.55624 1407 ft 9 kts 95°
2026-02-17 08:38 47.45859 8.55728 1404 ft 11 kts 96°
2026-02-17 08:38 47.45849 8.55864 1402 ft 15 kts 96°
2026-02-17 08:38 47.45839 8.56008 1403 ft 12 kts 96°
2026-02-17 08:39 47.45827 8.56185 1408 ft 7 kts 96°
2026-02-17 08:39 47.45822 8.56267 1405 ft 10 kts 96°
2026-02-17 08:39 47.45813 8.56394 1405 ft 14 kts 97°
2026-02-17 08:39 47.45800 8.56553 1402 ft 16 kts 97°
2026-02-17 08:40 47.45788 8.56730 1403 ft 17 kts 96°
2026-02-17 08:40 47.45777 8.56880 1407 ft 11 kts 96°
2026-02-17 08:40 47.45774 8.56923 1402 ft 0 kts 96°
2026-02-17 08:41 47.45772 8.56943 1399 ft 3 kts 96°
2026-02-17 08:41 47.45766 8.56989 1399 ft 6 kts 112°
2026-02-17 08:41 47.45731 8.57033 1404 ft 8 kts 161°
2026-02-17 08:41 47.45676 8.57029 1400 ft 7 kts 207°
2026-02-17 08:42 47.45663 8.56976 1401 ft 6 kts 276°
2026-02-17 08:42 47.45663 8.56967 1402 ft 0 kts 275°
2026-02-17 08:42 47.45663 8.56965 1402 ft 4 kts 275°
2026-02-17 08:43 47.45772 8.55420 1405 ft 144 kts 274°
2026-02-17 08:43 47.45886 8.53895 1999 ft 149 kts 275°
2026-02-17 08:43 47.46031 8.52400 2862 ft 151 kts 277°
2026-02-17 08:43 47.46192 8.50793 3439 ft 164 kts 278°
2026-02-17 08:44 47.46367 8.49075 4054 ft 175 kts 278°
2026-02-17 08:44 47.46394 8.47214 4751 ft 191 kts 254°
2026-02-17 08:44 47.45541 8.45622 5482 ft 207 kts 232°
2026-02-17 08:44 47.44675 8.43932 6421 ft 205 kts 246°
2026-02-17 08:45 47.44058 8.42035 7386 ft 204 kts 255°
2026-02-17 08:45 47.43412 8.40132 8388 ft 211 kts 245°
2026-02-17 08:45 47.42531 8.38350 9306 ft 223 kts 232°
2026-02-17 08:45 47.41213 8.37010 10173 ft 242 kts 207°
2026-02-17 08:46 47.39481 8.36945 10984 ft 265 kts 164°
2026-02-17 08:46 47.38012 8.38628 11811 ft 277 kts 121°
2026-02-17 08:46 47.37514 8.41320 12686 ft 273 kts 80°
2026-02-17 08:47 47.39349 8.45674 14488 ft 249 kts 33°
2026-02-17 08:47 47.40651 8.47388 15305 ft 253 kts 33°
2026-02-17 08:47 47.41958 8.49160 16119 ft 256 kts 34°
2026-02-17 08:47 47.43256 8.50985 16943 ft 259 kts 35°
2026-02-17 08:48 47.44542 8.52821 17745 ft 262 kts 35°
2026-02-17 08:48 47.45838 8.54751 18505 ft 270 kts 41°
2026-02-17 08:48 47.46813 8.57281 18907 ft 305 kts 67°
2026-02-17 08:48 47.46888 8.60629 19197 ft 343 kts 97°
2026-02-17 08:49 47.46301 8.64106 19507 ft 363 kts 96°
2026-02-17 08:49 47.46175 8.67854 19807 ft 372 kts 81°
2026-02-17 08:49 47.46293 8.71755 20172 ft 388 kts 80°
2026-02-17 08:49 47.46458 8.75780 20729 ft 396 kts 79°
2026-02-17 08:50 47.46611 8.79886 21447 ft 404 kts 82°
2026-02-17 08:50 47.46426 8.84088 22111 ft 417 kts 93°
2026-02-17 08:50 47.45882 8.88348 22764 ft 425 kts 96°
2026-02-17 08:51 47.44626 8.97005 23916 ft 436 kts 95°
2026-02-17 08:51 47.43986 9.01413 24379 ft 442 kts 95°
2026-02-17 08:51 47.43340 9.05871 24890 ft 446 kts 95°
2026-02-17 08:51 47.42690 9.10318 25754 ft 439 kts 94°
2026-02-17 08:52 47.42056 9.14689 26589 ft 433 kts 92°
2026-02-17 08:52 47.41661 9.19106 27224 ft 424 kts 82°
2026-02-17 08:52 47.41790 9.23367 27474 ft 419 kts 70°
2026-02-17 08:52 47.42284 9.27629 27683 ft 424 kts 67°
2026-02-17 08:53 47.42910 9.31916 27929 ft 431 kts 66°
2026-02-17 08:53 47.43585 9.36201 28722 ft 423 kts 65°
2026-02-17 08:53 47.44246 9.40389 29707 ft 414 kts 64°
2026-02-17 08:53 47.44881 9.44475 30530 ft 404 kts 64°
2026-02-17 08:54 47.45492 9.48467 31328 ft 393 kts 63°
2026-02-17 08:54 47.46082 9.52367 32065 ft 385 kts 63°
2026-02-17 08:54 47.46651 9.56227 32530 ft 387 kts 65°
2026-02-17 08:55 47.47021 9.64423 33216 ft 411 kts 80°
2026-02-17 08:55 47.46883 9.68651 33580 ft 413 kts 82°
2026-02-17 08:55 47.46673 9.72909 33846 ft 417 kts 83°
2026-02-17 08:55 47.46427 9.77199 34047 ft 421 kts 84°
2026-02-17 08:56 47.46166 9.81521 34237 ft 424 kts 84°
2026-02-17 08:56 47.45902 9.85868 34433 ft 426 kts 84°
2026-02-17 08:56 47.45641 9.90246 34641 ft 428 kts 84°
2026-02-17 08:56 47.45383 9.94641 34844 ft 430 kts 84°
2026-02-17 08:57 47.45127 9.99056 35035 ft 432 kts 84°
2026-02-17 08:57 47.44871 10.03488 35244 ft 434 kts 84°
2026-02-17 08:57 47.44615 10.07937 35518 ft 434 kts 85°
2026-02-17 08:57 47.44356 10.12378 35785 ft 435 kts 85°
2026-02-17 08:58 47.44073 10.16847 35960 ft 440 kts 89°
2026-02-17 08:58 47.43579 10.21339 36081 ft 446 kts 91°
2026-02-17 08:58 47.43019 10.25856 36275 ft 449 kts 92°
2026-02-17 08:59 47.41806 10.34942 36659 ft 453 kts 94°
2026-02-17 08:59 47.40947 10.39463 36812 ft 463 kts 104°
2026-02-17 08:59 47.39602 10.43822 36993 ft 472 kts 116°
2026-02-17 08:59 47.37723 10.47819 37259 ft 476 kts 129°
2026-02-17 09:00 47.35360 10.51227 37495 ft 477 kts 142°
2026-02-17 09:00 47.32615 10.53969 37629 ft 478 kts 150°
2026-02-17 09:00 47.29728 10.56422 37732 ft 480 kts 153°
2026-02-17 09:01 47.23804 10.61032 37964 ft 483 kts 154°